NepaliSat-1
1 44331U 98067QG 21189.36401554 .00066588 00000-0 35100-3 0 9999
2 44331 51.6297 176.7975 0005617 27.3877 332.7420 15.80010139117459
Prox-1
1 44339U 19036A 21189.71793795 .00000848 00000-0 14928-3 0 9998
2 44339 23.9990 200.2790 0011559 55.9199 304.2388 14.53624905108350
Oculus-ASR
1 44348U 19036K 21189.52695899 .00021022 00000-0 28238-3 0 9999
2 44348 28.5123 353.6124 0327789 135.0226 227.7407 15.12747193112109
Armadillo
1 44352U 19036P 21189.46000747 .00035556 00000-0 44359-3 0 9998
2 44352 28.5296 331.2144 0295369 169.6361 191.0489 15.20758155112270
NO-104
1 44354U 19036R 21189.46824589 .00022595 00000-0 29632-3 0 9994
2 44354 28.5287 346.8785 0322600 143.8731 218.4117 15.14295334112167
NO-103
1 44355U 19036S 21189.66188350 .00041944 -59466-5 43179-3 0 9993
2 44355 28.5283 296.9819 0255979 225.2286 132.7222 15.31594456112678
CP9
1 44360U 19036X 21189.44085833 .00097930 -41888-5 58942-3 0 9996
2 44360 28.5011 227.3032 0168885 340.7129 18.7142 15.58764476113222
Move-IIb
1 44398U 19038N 21189.59590059 .00001897 00000-0 10837-3 0 9999
2 44398 97.5841 153.5067 0022668 235.5952 124.3127 15.13750263110966
SONATE
1 44400U 19038Q 21189.94722660 .00001031 00000-0 62550-4 0 9997
2 44400 97.5914 153.7159 0023276 234.1113 125.7950 15.12593307110989
BeeSat 9
1 44412U 19038AC 21189.43071168 .00001287 00000-0 75669-4 0 9992
2 44412 97.5890 153.4923 0020586 239.9749 119.9440 15.13349706110623
JAISAT-1
1 44419U 19038F 21189.45986708 .00001276 00000-0 74069-4 0 9997
2 44419 97.5895 154.0853 0019471 237.7027 122.2319 15.13834567110974
LightSail-2
1 44420U 19036AC 21189.08554509 -.00001354 00000-0 -32110-3 0 9995
2 44420 24.0041 182.2355 0019240 82.7604 277.5075 14.60192030106631
Taurus 1
1 44530U 19059C 21189.83012741 .00000639 00000-0 19139-3 0 9991
2 44530 98.5526 280.3553 0015339 81.1667 279.1260 14.46098578 96171
Duchifat 3
1 44854U 19089C 21189.76849716 .00000594 00000-0 53773-4 0 9998
2 44854 36.9689 334.5799 0009825 310.1415 49.8466 14.99531905 86307
OPS-SAT
1 44878U 19092F 21189.43586666 .00001459 00000-0 77951-4 0 9999
2 44878 97.4751 12.6238 0015428 96.5302 263.7688 15.16591037 86016
TO-108
1 44881U 19093C 21189.81062011 .00000080 00000-0 17006-4 0 9993
2 44881 97.9234 268.4062 0013985 220.0050 140.0139 14.81461541 83895
FloripaSat 1
1 44885U 19093G 21189.81931484 .00000374 00000-0 53444-4 0 9998
2 44885 97.9257 269.0304 0013514 227.9023 132.1042 14.82320582 83934
RS-44
1 44909U 19096E 21189.26767774 .00000021 00000-0 35889-4 0 9998
2 44909 82.5218 98.9859 0218386 44.6378 317.2077 12.79710685 71485
SwampSat-2
1 45115U 19071E 21189.79638462 .00048073 00000-0 67384-3 0 9993
2 45115 51.6342 269.3463 0008574 8.2452 351.8679 15.56238564 80762
HO-107
1 45119U 19071J 21189.36840651 .00003767 00000-0 11671-3 0 9994
2 45119 51.6422 295.4655 0011326 7.9953 352.1208 15.35951488 80383
Phoenix
1 45258U 98067RB 21189.35624972 .00008950 00000-0 12783-3 0 9999
2 45258 51.6379 224.2854 0005722 339.6690 20.4074 15.57075610 78465
AztechSat-1
1 45261U 98067RE 21189.34448282 .00032188 00000-0 30304-3 0 9999
2 45261 51.6336 212.1747 0007110 1.7982 358.3039 15.66766100 78648
QARMAN
1 45263U 98067RG 21189.37927456 .00019602 00000-0 22035-3 0 9997
2 45263 51.6362 217.6923 0006769 355.1716 4.9212 15.62588663 78611
Quetzal 1
1 45598U 98067RL 21189.44992086 .00016873 00000-0 20630-3 0 9993
2 45598 51.6379 221.9395 0002622 48.2759 311.8458 15.60533311 67834
BY70-2
1 45857U 20042B 21189.78089742 .00001418 00000-0 20782-3 0 9999
2 45857 97.9831 265.3064 0012461 139.3726 220.8412 14.77094273 54696
UPMSat 2
1 46276U 20061E 21189.46672050 .00000702 00000-0 39387-4 0 9998
2 46276 97.4317 262.8226 0000549 36.9549 323.1722 15.16506027 46722
AmicalSat
1 46287U 20061R 21189.44126332 .00000800 00000-0 52311-4 0 9996
2 46287 97.4870 262.2479 0003695 49.4043 310.7508 15.10524498 46512
SALSAT
1 46495U 20068K 21189.62529706 .00000665 00000-0 53198-4 0 9999
2 46495 97.6942 126.9947 0017020 6.3549 353.7890 15.03489900 42518
BY70-3
1 46839U 20079N 21189.91700862 .00003789 00000-0 11800-3 0 9992
2 46839 97.2396 263.3466 0008664 123.1796 354.4627 15.33844359 37490
SPOC
1 46921U 98067RR 21189.41476064 .00008141 00000-0 12695-3 0 9995
2 46921 51.6406 231.4732 0001565 134.0383 226.0738 15.54807373 38122
Bobcat-1
1 46922U 98067RS 21189.53360950 .00012219 00000-0 17445-3 0 9994
2 46922 51.6410 229.2889 0000891 124.0117 236.0960 15.56695385 38118
Neutron-1
1 46923U 98067RT 21189.36774286 .00007902 00000-0 12401-3 0 9997
2 46923 51.6404 231.9065 0001315 151.3692 208.7371 15.54677783 38146
CAPE 3
1 47309U 21002A 21189.74897086 .00001283 00000-0 68746-4 0 9997
2 47309 60.6803 212.3337 0043417 59.3887 301.1470 15.20830192 26126
AO-109
1 47311U 21002C 21189.45010781 .00000974 00000-0 54003-4 0 9994
2 47311 60.6852 212.5948 0039355 59.6242 300.8726 15.21725322 26069
MiTEE 1
1 47314U 21002F 21189.56629886 .00002131 00000-0 99394-4 0 9990
2 47314 60.6831 210.8521 0037960 50.9748 309.4708 15.23229172 26128
ExoCube 2
1 47319U 21002L 21189.42572672 .00000998 00000-0 55608-4 0 9999
2 47319 60.6813 213.0226 0039830 59.9679 300.5349 15.21341655 26021
UVSQ-SAT
1 47438U 21006AB 21189.67497114 .00001046 00000-0 62502-4 0 9995
2 47438 97.4862 250.5181 0013459 31.7566 328.4474 15.13194012 25260
YUSAT 1
1 47439U 21006AC 21189.14827451 .00001291 00000-0 76251-4 0 9997
2 47439 97.4864 249.9995 0013365 33.8467 326.3615 15.13192912 25189
SOMP 2b
1 47445U 21006AJ 21189.16251188 .00001071 00000-0 64191-4 0 9990
2 47445 97.4833 249.9148 0013221 37.1067 323.1075 15.13030740 25181
IDEASSat
1 47458U 21006AX 21189.77255286 .00001054 00000-0 63507-4 0 9995
2 47458 97.4924 250.6807 0012240 33.6668 326.5338 15.12895370 25271
RSP-01
1 47925U 98067SB 21189.42653710 .00008694 00000-0 14919-3 0 9990
2 47925 51.6413 236.0340 0002143 93.4131 266.7104 15.52021955 18031
TAUSAT-1
1 47926U 98067SC 21189.64832278 .00009588 00000-0 15969-3 0 9992
2 47926 51.6405 234.5142 0003039 98.7825 261.3509 15.52726968 18068
Tsuru
1 47927U 98067SD 21189.43342420 .00007559 00000-0 13166-3 0 9998
2 47927 51.6413 236.0798 0002277 93.9173 266.2077 15.51818421 18034
STARS-EC
1 47928U 98067SE 21189.42900295 .00010827 00000-0 18262-3 0 9992
2 47928 51.6410 236.0440 0004419 187.4087 172.6838 15.52211960 18018
Maya-2
1 47929U 98067SF 21189.43106211 .00007564 00000-0 13160-3 0 9996
2 47929 51.6414 236.0640 0002389 91.5540 268.5724 15.51847951 17997
OPUSAT-II
1 47930U 98067SG 21189.40848505 .00012384 00000-0 20479-3 0 9991
2 47930 51.6412 235.9150 0002288 78.0268 282.0979 15.52618422 18035
GuaraniSat-1
1 47931U 98067SH 21189.43006178 .00007404 00000-0 12892-3 0 9994
2 47931 51.6415 236.0582 0002452 91.6906 268.4364 15.51861286 18036
CubeSX-Sirius-HSE
1 47951U 21022V 21189.90981493 .00000605 00000-0 45987-4 0 9995
2 47951 97.5591 91.6378 0020415 236.3980 123.5291 15.05701457 16286
CubeSX-HSE
1 47952U 21022W 21189.90703710 .00000548 00000-0 42019-4 0 9999
2 47952 97.5582 91.6380 0020210 236.2449 123.6841 15.05740200 16283
KSU-Cubesat
1 47954U 21022Y 21189.70222153 .00000198 00000-0 17864-4 0 9997
2 47954 97.5577 91.4546 0020096 236.5431 123.3875 15.05819014 15976
GRBAlpha
1 47959U 21022AD 21189.70789556 .00000609 00000-0 46218-4 0 9999
2 47959 97.5590 91.4510 0020085 237.3554 122.5744 15.05738919 15071
